"read_dt","SO2 (ppb)","flags","PMT voltage (V)","lamp voltage (V)","lamp intensity (Hz)","internal temp (C)","react chamber temp (C)","sample flow (l/min)","pres (mmHg)","SO2 bkg (ppb)","SO2 coefficient"
2013-10-23 00:00:00,3607E-4,5C000000,-0724,0959,10837,024.5,045.2,0.399,740.6,01.18,0.508
2013-10-23 00:01:00,3313E-4,5C000000,-0724,0957,10893,024.5,045.2,0.400,740.6,01.18,0.508
2013-10-23 00:02:00,3390E-4,5C000000,-0724,0960,11160,024.5,045.2,0.400,740.7,01.18,0.508
2013-10-23 00:03:00,3163E-4,5C000000,-0724,0959,11049,024.5,045.2,0.399,740.6,01.18,0.508
2013-10-23 00:04:00,3415E-4,5C000000,-0724,0959,10932,024.5,045.2,0.399,740.6,01.18,0.508
2013-10-23 00:05:00,3587E-4,5C000000,-0724,0958,10943,024.5,045.2,0.399,740.6,01.18,0.508
2013-10-23 00:06:00,3503E-4,5C000000,-0724,0958,10851,024.5,045.2,0.400,740.6,01.18,0.508
2013-10-23 00:07:00,3724E-4,5C000000,-0724,0959,10898,024.6,045.2,0.400,740.6,01.18,0.508
2013-10-23 00:08:00,2799E-4,5C000000,-0724,0958,10893,024.6,045.2,0.399,740.6,01.18,0.508
2013-10-23 00:09:00,3666E-4,5C000000,-0724,0960,10966,024.6,045.2,0.399,740.6,01.18,0.508
2013-10-23 00:10:00,3297E-4,5C000000,-0724,0959,10940,024.6,045.2,0.400,740.6,01.18,0.508
2013-10-23 00:11:00,3242E-4,5C000000,-0724,0958,10884,024.6,045.2,0.400,740.6,01.18,0.508
2013-10-23 00:12:00,3444E-4,5C000000,-0724,0958,11076,024.6,045.2,0.399,740.6,01.18,0.508
2013-10-23 00:13:00,4024E-4,5C000000,-0724,0958,10884,024.6,045.2,0.399,740.5,01.18,0.508
2013-10-23 00:14:00,2224E-4,5C000000,-0724,0959,10931,024.6,045.2,0.399,740.6,01.18,0.508
2013-10-23 00:15:00,4248E-4,5C000000,-0724,0959,10928,024.6,045.2,0.400,740.6,01.18,0.508
2013-10-23 00:16:00,3674E-4,5C000000,-0724,0959,10720,024.6,045.2,0.399,740.6,01.18,0.508
2013-10-23 00:17:00,3506E-4,5C000000,-0724,0959,11073,024.6,045.2,0.399,740.5,01.18,0.508
2013-10-23 00:18:00,3764E-4,5C000000,-0724,0959,11048,024.6,045.2,0.400,740.5,01.18,0.508
2013-10-23 00:19:00,3456E-4,5C000000,-0724,0959,11048,024.7,045.2,0.399,740.5,01.18,0.508
2013-10-23 00:20:00,2770E-4,5C000000,-0724,0959,10929,024.7,045.2,0.399,740.5,01.18,0.508
2013-10-23 00:21:00,3499E-4,5C000000,-0724,0959,11003,024.7,045.2,0.399,740.4,01.18,0.508
2013-10-23 00:22:00,4542E-4,5C000000,-0724,0959,11030,024.7,045.2,0.400,740.5,01.18,0.508
2013-10-23 00:23:00,3571E-4,5C000000,-0724,0959,10956,024.7,045.2,0.399,740.2,01.18,0.508
2013-10-23 00:24:00,3188E-4,5C000000,-0724,0959,10875,024.7,045.2,0.399,740.3,01.18,0.508
2013-10-23 00:25:00,3697E-4,5C000000,-0724,0959,11057,024.7,045.2,0.399,740.0,01.18,0.508
2013-10-23 00:26:00,2910E-4,5C000000,-0724,0959,11058,024.7,045.2,0.399,739.8,01.18,0.508
2013-10-23 00:27:00,3924E-4,5C000000,-0724,0959,10906,024.7,045.2,0.399,740.5,01.18,0.508
2013-10-23 00:28:00,3750E-4,5C000000,-0724,0959,10910,024.7,045.3,0.399,740.3,01.18,0.508
2013-10-23 00:29:00,2773E-4,5C000000,-0724,0959,10889,024.7,045.2,0.399,740.0,01.18,0.508
2013-10-23 00:30:00,2743E-4,5C000000,-0724,0960,10864,024.7,045.2,0.399,740.5,01.18,0.508
2013-10-23 00:31:00,3103E-4,5C000000,-0724,0959,10887,024.7,045.2,0.399,740.0,01.18,0.508
2013-10-23 00:32:00,4412E-4,5C000000,-0724,0959,10930,024.7,045.2,0.399,740.0,01.18,0.508
2013-10-23 00:33:00,3338E-4,5C000000,-0724,0960,10956,024.7,045.2,0.399,740.2,01.18,0.508
2013-10-23 00:34:00,2523E-4,5C000000,-0724,0958,10926,024.7,045.2,0.399,740.2,01.18,0.508
2013-10-23 00:35:00,3809E-4,5C000000,-0724,0959,11043,024.8,045.2,0.399,740.1,01.18,0.508
2013-10-23 00:36:00,3601E-4,5C000000,-0724,0960,10952,024.7,045.2,0.399,740.3,01.18,0.508
2013-10-23 00:37:00,3329E-4,5C000000,-0724,0959,10892,024.8,045.2,0.399,740.0,01.18,0.508
2013-10-23 00:38:00,2965E-4,5C000000,-0724,0960,10961,024.8,045.2,0.399,740.0,01.18,0.508
2013-10-23 00:39:00,3125E-4,5C000000,-0724,0959,11074,024.8,045.2,0.399,739.4,01.18,0.508
2013-10-23 00:40:00,3171E-4,5C000000,-0724,0959,10825,024.8,045.2,0.399,739.3,01.18,0.508
2013-10-23 00:41:00,4092E-4,5C000000,-0724,0960,11016,024.8,045.2,0.398,740.0,01.18,0.508
2013-10-23 00:42:00,2267E-4,5C000000,-0724,0960,11093,024.8,045.2,0.399,739.9,01.18,0.508
2013-10-23 00:43:00,3044E-4,5C000000,-0724,0959,10923,024.8,045.2,0.399,739.5,01.18,0.508
2013-10-23 00:44:00,3222E-4,5C000000,-0724,0959,10965,024.8,045.2,0.398,739.6,01.18,0.508
2013-10-23 00:45:00,3598E-4,5C000000,-0724,0960,11071,024.8,045.2,0.398,739.6,01.18,0.508
2013-10-23 00:46:00,3607E-4,5C000000,-0724,0959,10811,024.8,045.2,0.399,739.5,01.18,0.508
2013-10-23 00:47:00,3530E-4,5C000000,-0724,0959,10946,024.8,045.3,0.399,739.5,01.18,0.508
2013-10-23 00:48:00,3561E-4,5C000000,-0724,0959,10959,024.8,045.2,0.398,739.4,01.18,0.508
2013-10-23 00:49:00,2927E-4,5C000000,-0724,0959,10948,024.8,045.2,0.398,739.5,01.18,0.508
2013-10-23 00:50:00,3286E-4,5C000000,-0724,0960,10927,024.8,045.2,0.399,739.7,01.18,0.508
2013-10-23 00:51:00,2957E-4,5C000000,-0724,0959,10896,024.8,045.2,0.398,739.4,01.18,0.508
2013-10-23 00:52:00,3082E-4,5C000000,-0724,0959,10923,024.8,045.2,0.398,739.7,01.18,0.508
2013-10-23 00:53:00,2462E-4,5C000000,-0724,0959,10984,024.8,045.2,0.399,739.9,01.18,0.508
2013-10-23 00:54:00,3516E-4,5C000000,-0724,0959,10920,024.8,045.2,0.399,739.8,01.18,0.508
2013-10-23 00:55:00,3044E-4,5C000000,-0724,0959,10939,024.8,045.2,0.398,739.4,01.18,0.508
2013-10-23 00:56:00,4114E-4,5C000000,-0724,0959,10992,024.8,045.2,0.398,739.9,01.18,0.508
2013-10-23 00:57:00,4372E-4,5C000000,-0724,0960,10940,024.8,045.2,0.399,739.7,01.18,0.508
2013-10-23 00:58:00,2191E-4,5C000000,-0724,0960,10971,024.9,045.2,0.399,740.0,01.18,0.508
2013-10-23 00:59:00,2510E-4,5C000000,-0724,0959,10878,024.9,045.2,0.398,739.9,01.18,0.508
2013-10-23 01:00:00,3321E-4,5C000000,-0724,0959,10812,024.9,045.2,0.398,740.1,01.18,0.508
2013-10-23 01:01:00,2533E-4,5C000000,-0724,0959,10915,024.9,045.2,0.399,739.9,01.18,0.508
2013-10-23 01:02:00,2976E-4,5C000000,-0724,0960,10916,024.9,045.2,0.399,740.4,01.18,0.508
2013-10-23 01:03:00,2869E-4,5C000000,-0724,0959,10927,024.9,045.2,0.399,740.0,01.18,0.508
2013-10-23 01:04:00,2670E-4,5C000000,-0724,0959,11027,024.9,045.2,0.398,740.5,01.18,0.508
2013-10-23 01:05:00,2924E-4,5C000000,-0724,0960,11009,024.9,045.2,0.398,740.5,01.18,0.508
2013-10-23 01:06:00,2610E-4,5C000000,-0724,0959,10820,024.9,045.2,0.399,740.0,01.18,0.508
2013-10-23 01:07:00,2810E-4,5C000000,-0724,0960,10933,024.9,045.2,0.399,740.0,01.18,0.508
2013-10-23 01:08:00,3358E-4,5C000000,-0724,0959,10983,024.9,045.3,0.399,740.6,01.18,0.508
2013-10-23 01:09:00,3684E-4,5C000000,-0724,0959,10955,024.9,045.2,0.399,740.6,01.18,0.508
2013-10-23 01:10:00,3103E-4,5C000000,-0724,0959,10993,024.9,045.2,0.398,740.6,01.18,0.508
2013-10-23 01:11:00,3566E-4,5C000000,-0724,0960,10996,024.9,045.2,0.399,740.6,01.18,0.508
2013-10-23 01:12:00,3849E-4,5C000000,-0724,0959,11041,024.9,045.2,0.399,740.6,01.18,0.508
2013-10-23 01:13:00,3552E-4,5C000000,-0724,0960,11010,024.9,045.2,0.399,740.6,01.18,0.508
2013-10-23 01:14:00,2842E-4,5C000000,-0724,0960,10925,024.9,045.2,0.399,740.6,01.18,0.508
2013-10-23 01:15:00,2779E-4,5C000000,-0724,0960,10955,024.9,045.2,0.399,740.6,01.18,0.508
2013-10-23 01:16:00,2828E-4,5C000000,-0724,0959,11009,024.9,045.2,0.399,740.6,01.18,0.508
2013-10-23 01:17:00,3543E-4,5C000000,-0724,0959,10878,024.9,045.2,0.398,740.6,01.18,0.508
2013-10-23 01:18:00,2958E-4,5C000000,-0724,0959,11010,024.9,045.2,0.399,740.7,01.18,0.508
2013-10-23 01:19:00,4501E-4,5C000000,-0724,0959,10783,024.9,045.2,0.398,740.6,01.18,0.508
2013-10-23 01:20:00,3106E-4,5C000000,-0724,0959,10974,024.9,045.2,0.399,740.9,01.18,0.508
2013-10-23 01:21:00,2347E-4,5C000000,-0724,0960,10903,024.9,045.2,0.399,740.6,01.18,0.508
2013-10-23 01:22:00,3481E-4,5C000000,-0724,0959,10970,024.9,045.2,0.399,740.6,01.18,0.508
2013-10-23 01:23:00,3328E-4,5C000000,-0724,0959,10966,024.9,045.2,0.399,740.6,01.18,0.508
2013-10-23 01:24:00,3187E-4,5C000000,-0724,0960,10997,024.9,045.2,0.399,740.6,01.18,0.508
2013-10-23 01:25:00,3374E-4,5C000000,-0724,0960,10837,024.9,045.2,0.399,740.6,01.18,0.508
2013-10-23 01:26:00,2545E-4,5C000000,-0724,0960,10905,025.0,045.3,0.398,740.6,01.18,0.508
2013-10-23 01:27:00,3435E-4,5C000000,-0724,0960,11028,025.0,045.3,0.398,740.6,01.18,0.508
2013-10-23 01:28:00,3544E-4,5C000000,-0724,0960,11060,025.0,045.2,0.399,740.6,01.18,0.508
2013-10-23 01:29:00,3813E-4,5C000000,-0724,0959,10862,024.9,045.2,0.399,740.5,01.18,0.508
2013-10-23 01:30:00,2521E-4,5C000000,-0724,0959,10815,025.0,045.2,0.399,740.6,01.18,0.508
2013-10-23 01:31:00,2727E-4,5C000000,-0724,0959,10830,025.0,045.2,0.399,740.6,01.18,0.508
2013-10-23 01:32:00,2969E-4,5C000000,-0724,0959,10759,025.0,045.2,0.398,740.6,01.18,0.508
2013-10-23 01:33:00,3038E-4,5C000000,-0724,0959,10902,025.0,045.2,0.398,740.2,01.18,0.508
2013-10-23 01:34:00,3459E-4,5C000000,-0724,0960,10969,025.0,045.3,0.399,739.9,01.18,0.508
2013-10-23 01:35:00,4081E-4,5C000000,-0724,0960,10913,025.0,045.2,0.399,740.5,01.18,0.508
2013-10-23 01:36:00,3902E-4,5C000000,-0724,0960,10811,025.0,045.2,0.399,740.6,01.18,0.508
2013-10-23 01:37:00,3521E-4,5C000000,-0724,0961,11023,025.0,045.2,0.398,740.1,01.18,0.508
2013-10-23 01:38:00,3301E-4,5C000000,-0724,0959,10986,025.0,045.2,0.398,740.2,01.18,0.508
2013-10-23 01:39:00,1081E-4,5C000000,-0724,0959,11076,025.0,045.2,0.398,740.2,01.18,0.508
2013-10-23 01:40:00,1911E-4,5C000000,-0724,0960,10886,025.0,045.2,0.398,740.1,01.18,0.508
2013-10-23 01:41:00,2001E-4,5C000000,-0724,0960,10899,025.0,045.2,0.399,740.1,01.18,0.508
2013-10-23 01:42:00,3470E-4,5C000000,-0724,0959,10848,025.0,045.2,0.399,740.0,01.18,0.508
2013-10-23 01:43:00,3796E-4,5C000000,-0724,0960,11039,025.0,045.2,0.399,740.1,01.18,0.508
2013-10-23 01:44:00,2987E-4,5C000000,-0724,0960,10849,025.0,045.2,0.398,739.7,01.18,0.508
2013-10-23 01:45:00,2626E-4,5C000000,-0724,0959,11019,025.0,045.3,0.398,739.7,01.18,0.508
2013-10-23 01:46:00,2573E-4,5C000000,-0724,0959,10976,025.0,045.2,0.398,740.1,01.18,0.508
2013-10-23 01:47:00,2231E-4,5C000000,-0724,0959,11025,025.0,045.2,0.399,739.9,01.18,0.508
2013-10-23 01:48:00,2947E-4,5C000000,-0724,0959,10955,025.0,045.2,0.399,740.0,01.18,0.508
2013-10-23 01:49:00,2403E-4,5C000000,-0724,0960,11067,025.0,045.3,0.399,739.9,01.18,0.508
2013-10-23 01:50:00,2552E-4,5C000000,-0724,0959,10880,025.0,045.2,0.398,739.7,01.18,0.508
2013-10-23 01:51:00,3036E-4,5C000000,-0724,0959,10907,025.0,045.2,0.398,739.7,01.18,0.508
2013-10-23 01:52:00,2483E-4,5C000000,-0724,0959,10929,025.0,045.2,0.398,739.9,01.18,0.508
2013-10-23 01:53:00,2966E-4,5C000000,-0724,0960,10903,025.0,045.2,0.398,739.8,01.18,0.508
2013-10-23 01:54:00,3125E-4,5C000000,-0724,0960,10869,025.0,045.2,0.399,739.6,01.18,0.508
2013-10-23 01:55:00,2682E-4,5C000000,-0724,0960,10814,025.0,045.2,0.398,739.7,01.18,0.508
2013-10-23 01:56:00,2766E-4,5C000000,-0724,0959,11067,025.0,045.2,0.398,739.6,01.18,0.508
2013-10-23 01:57:00,2852E-4,5C000000,-0724,0959,10800,025.0,045.2,0.398,739.4,01.18,0.508
2013-10-23 01:58:00,3387E-4,5C000000,-0724,0959,10902,025.0,045.2,0.398,739.8,01.18,0.508
2013-10-23 01:59:00,2676E-4,5C000000,-0724,0959,10788,025.0,045.2,0.399,739.7,01.18,0.508
2013-10-23 02:00:00,2288E-4,5C000000,-0724,0960,10981,025.0,045.3,0.399,739.6,01.18,0.508
2013-10-23 02:01:00,2505E-4,5C000000,-0724,0959,10959,025.0,045.2,0.398,739.8,01.18,0.508
2013-10-23 02:02:00,3247E-4,5C000000,-0724,0959,10833,025.0,045.2,0.398,739.5,01.18,0.508
2013-10-23 02:03:00,2395E-4,5C000000,-0724,0959,10923,025.0,045.2,0.398,739.5,01.18,0.508
2013-10-23 02:04:00,3265E-4,5C000000,-0724,0959,10985,025.0,045.2,0.398,739.6,01.18,0.508
2013-10-23 02:05:00,2478E-4,5C000000,-0724,0960,10994,025.0,045.2,0.398,739.3,01.18,0.508
2013-10-23 02:06:00,3442E-4,5C000000,-0724,0960,10936,025.0,045.2,0.398,739.1,01.18,0.508
2013-10-23 02:07:00,3128E-4,5C000000,-0724,0960,11073,025.0,045.2,0.398,739.3,01.18,0.508
2013-10-23 02:08:00,3191E-4,5C000000,-0724,0959,10836,024.9,045.2,0.398,739.1,01.18,0.508
2013-10-23 02:09:00,2434E-4,5C000000,-0724,0959,10959,024.9,045.3,0.398,739.1,01.18,0.508
2013-10-23 02:10:00,3844E-4,5C000000,-0724,0959,10928,024.9,045.2,0.398,739.1,01.18,0.508
2013-10-23 02:11:00,2422E-4,5C000000,-0724,0959,10918,025.0,045.2,0.398,738.9,01.18,0.508
2013-10-23 02:12:00,2627E-4,5C000000,-0724,0960,10911,025.0,045.3,0.398,739.3,01.18,0.508
2013-10-23 02:13:00,2827E-4,5C000000,-0724,0960,10868,025.0,045.2,0.398,739.4,01.18,0.508
2013-10-23 02:14:00,3244E-4,5C000000,-0724,0960,10926,025.0,045.2,0.398,739.3,01.18,0.508
2013-10-23 02:15:00,3572E-4,5C000000,-0724,0960,10862,025.0,045.2,0.398,739.3,01.18,0.508
2013-10-23 02:16:00,3267E-4,5C000000,-0724,0960,11028,024.9,045.3,0.398,739.3,01.18,0.508
2013-10-23 02:17:00,3070E-4,5C000000,-0724,0959,11010,024.9,045.3,0.398,739.2,01.18,0.508
2013-10-23 02:18:00,2709E-4,5C000000,-0724,0960,10845,024.9,045.2,0.398,739.0,01.18,0.508
2013-10-23 02:19:00,2755E-4,5C000000,-0724,0959,10856,025.0,045.3,0.398,739.0,01.18,0.508
2013-10-23 02:20:00,2131E-4,5C000000,-0724,0959,10919,024.9,045.2,0.398,739.0,01.18,0.508
2013-10-23 02:21:00,2822E-4,5C000000,-0724,0958,10953,025.0,045.2,0.398,739.2,01.18,0.508
2013-10-23 02:22:00,3511E-4,5C000000,-0724,0959,11052,024.9,045.2,0.398,739.3,01.18,0.508
2013-10-23 02:23:00,3695E-4,5C000000,-0724,0960,11024,024.9,045.2,0.398,739.4,01.18,0.508
2013-10-23 02:24:00,3796E-4,5C000000,-0724,0959,10909,024.9,045.2,0.398,739.5,01.18,0.508
2013-10-23 02:25:00,3891E-4,5C000000,-0724,0959,11051,024.9,045.2,0.399,739.2,01.18,0.508
2013-10-23 02:26:00,2671E-4,5C000000,-0724,0960,10995,024.9,045.2,0.398,739.1,01.18,0.508
2013-10-23 02:27:00,3807E-4,5C000000,-0724,0959,10956,024.9,045.2,0.398,739.6,01.18,0.508
2013-10-23 02:28:00,3866E-4,5C000000,-0724,0959,10839,024.9,045.2,0.398,739.3,01.18,0.508
2013-10-23 02:29:00,3168E-4,5C000000,-0724,0959,10994,024.9,045.2,0.398,739.3,01.18,0.508
2013-10-23 02:30:00,2377E-4,5C000000,-0724,0959,10968,024.9,045.2,0.398,739.6,01.18,0.508
2013-10-23 02:31:00,3241E-4,5C000000,-0724,0959,11070,024.9,045.2,0.398,739.5,01.18,0.508
2013-10-23 02:32:00,2348E-4,5C000000,-0724,0959,10945,024.9,045.2,0.398,739.5,01.18,0.508
2013-10-23 02:33:00,3002E-4,5C000000,-0724,0960,10977,024.9,045.2,0.398,739.3,01.18,0.508
2013-10-23 02:34:00,2469E-4,5C000000,-0724,0959,10986,024.9,045.2,0.399,739.7,01.18,0.508
2013-10-23 02:35:00,2791E-4,5C000000,-0724,0960,10941,024.9,045.2,0.399,739.7,01.18,0.508
2013-10-23 02:36:00,2732E-4,5C000000,-0724,0960,10952,024.9,045.3,0.398,739.5,01.18,0.508
2013-10-23 02:37:00,4135E-4,5C000000,-0724,0959,11101,024.9,045.3,0.398,739.7,01.18,0.508
2013-10-23 02:38:00,3097E-4,5C000000,-0724,0960,10892,024.9,045.3,0.398,739.6,01.18,0.508
2013-10-23 02:39:00,2667E-4,5C000000,-0724,0960,10919,024.9,045.2,0.398,739.8,01.18,0.508
2013-10-23 02:40:00,3108E-4,5C000000,-0724,0959,11038,024.9,045.3,0.398,739.8,01.18,0.508
2013-10-23 02:41:00,2559E-4,5C000000,-0724,0959,10809,024.9,045.2,0.398,739.6,01.18,0.508
2013-10-23 02:42:00,2013E-4,5C000000,-0724,0959,10814,024.9,045.2,0.399,739.9,01.18,0.508
2013-10-23 02:43:00,3295E-4,5C000000,-0724,0959,11037,024.9,045.2,0.398,739.7,01.18,0.508
2013-10-23 02:44:00,2287E-4,5C000000,-0724,0959,10902,024.9,045.2,0.399,739.8,01.18,0.508
2013-10-23 02:45:00,2838E-4,5C000000,-0724,0959,10930,024.9,045.2,0.399,739.7,01.18,0.508
2013-10-23 02:46:00,2495E-4,5C000000,-0724,0960,10852,024.9,045.3,0.399,739.8,01.18,0.508
2013-10-23 02:47:00,3078E-4,5C000000,-0724,0959,10877,024.9,045.2,0.399,739.8,01.18,0.508
2013-10-23 02:48:00,1984E-4,5C000000,-0724,0959,10928,024.9,045.2,0.399,739.9,01.18,0.508
2013-10-23 02:49:00,1725E-4,5C000000,-0724,0959,10923,024.9,045.2,0.399,739.5,01.18,0.508
2013-10-23 02:50:00,4139E-4,5C000000,-0724,0960,10775,025.0,045.2,0.399,739.7,01.18,0.508
2013-10-23 02:51:00,3389E-4,5C000000,-0724,0959,10943,024.9,045.2,0.398,739.5,01.18,0.508
2013-10-23 02:52:00,2330E-4,5C000000,-0724,0960,10969,024.9,045.3,0.398,739.7,01.18,0.508
2013-10-23 02:53:00,2808E-4,5C000000,-0724,0959,10938,024.9,045.3,0.398,739.4,01.18,0.508
2013-10-23 02:54:00,2037E-4,5C000000,-0724,0960,10933,024.9,045.3,0.398,739.7,01.18,0.508
2013-10-23 02:55:00,2442E-4,5C000000,-0724,0959,10934,024.9,045.2,0.398,739.4,01.18,0.508
2013-10-23 02:56:00,2618E-4,5C000000,-0724,0959,10816,024.9,045.2,0.398,739.3,01.18,0.508
2013-10-23 02:57:00,2728E-4,5C000000,-0724,0960,10820,024.9,045.2,0.398,739.2,01.18,0.508
2013-10-23 02:58:00,2821E-4,5C000000,-0724,0959,10951,024.9,045.2,0.399,739.3,01.18,0.508
2013-10-23 02:59:00,2388E-4,5C000000,-0724,0959,10987,024.9,045.2,0.398,739.3,01.18,0.508
2013-10-23 03:00:00,2796E-4,5C000000,-0724,0960,11013,024.9,045.3,0.398,739.4,01.18,0.508
2013-10-23 03:01:00,3095E-4,5C000000,-0724,0959,10945,024.9,045.2,0.398,739.0,01.18,0.508
2013-10-23 03:02:00,3144E-4,5C000000,-0724,0959,10937,024.9,045.2,0.398,739.3,01.18,0.508
2013-10-23 03:03:00,3698E-4,5C000000,-0724,0959,10956,024.9,045.2,0.398,739.1,01.18,0.508
2013-10-23 03:04:00,3055E-4,5C000000,-0724,0959,10860,024.9,045.2,0.398,739.2,01.18,0.508
2013-10-23 03:05:00,2911E-4,5C000000,-0724,0959,10933,024.9,045.2,0.398,738.9,01.18,0.508
2013-10-23 03:06:00,3121E-4,5C000000,-0724,0959,10965,024.9,045.2,0.398,738.8,01.18,0.508
2013-10-23 03:07:00,1822E-4,5C000000,-0724,0960,10874,024.9,045.2,0.398,739.2,01.18,0.508
2013-10-23 03:08:00,2544E-4,5C000000,-0724,0959,10947,024.9,045.2,0.398,738.7,01.18,0.508
2013-10-23 03:09:00,2884E-4,5C000000,-0724,0960,10893,024.9,045.2,0.398,738.8,01.18,0.508
2013-10-23 03:10:00,3206E-4,5C000000,-0724,0959,10935,024.9,045.2,0.398,738.9,01.18,0.508
2013-10-23 03:11:00,2712E-4,5C000000,-0724,0959,10975,024.9,045.2,0.398,739.0,01.18,0.508
2013-10-23 03:12:00,3684E-4,5C000000,-0724,0960,10879,024.9,045.2,0.398,738.6,01.18,0.508
2013-10-23 03:13:00,2728E-4,5C000000,-0724,0959,10966,024.9,045.2,0.398,739.1,01.18,0.508
2013-10-23 03:14:00,2189E-4,5C000000,-0724,0958,10839,024.9,045.2,0.398,738.8,01.18,0.508
2013-10-23 03:15:00,3745E-4,5C000000,-0724,0959,11068,024.9,045.2,0.398,738.7,01.18,0.508
2013-10-23 03:16:00,2077E-4,5C000000,-0724,0959,10944,024.9,045.2,0.398,738.7,01.18,0.508
2013-10-23 03:17:00,2172E-4,5C000000,-0724,0958,10773,024.9,045.2,0.398,738.3,01.18,0.508
2013-10-23 03:18:00,2984E-4,5C000000,-0724,0959,10870,024.9,045.3,0.398,738.4,01.18,0.508
2013-10-23 03:19:00,3854E-4,5C000000,-0724,0959,10867,024.9,045.2,0.397,738.2,01.18,0.508
2013-10-23 03:20:00,2365E-4,5C000000,-0724,0959,10902,024.9,045.2,0.398,738.4,01.18,0.508
2013-10-23 03:21:00,3360E-4,5C000000,-0724,0959,10998,024.9,045.2,0.398,738.2,01.18,0.508
2013-10-23 03:22:00,2746E-4,5C000000,-0724,0959,10810,024.9,045.2,0.398,738.3,01.18,0.508
2013-10-23 03:23:00,2415E-4,5C000000,-0724,0960,10976,024.9,045.2,0.398,738.2,01.18,0.508
2013-10-23 03:24:00,3076E-4,5C000000,-0724,0960,10963,024.9,045.2,0.398,738.3,01.18,0.508
2013-10-23 03:25:00,2402E-4,5C000000,-0724,0960,10915,024.9,045.2,0.397,737.8,01.18,0.508
2013-10-23 03:26:00,2126E-4,5C000000,-0724,0960,10886,024.9,045.2,0.398,738.1,01.18,0.508
2013-10-23 03:27:00,2214E-4,5C000000,-0724,0959,10954,024.9,045.2,0.398,737.9,01.18,0.508
2013-10-23 03:28:00,1895E-4,5C000000,-0724,0959,10874,024.9,045.3,0.398,738.0,01.18,0.508
2013-10-23 03:29:00,1888E-4,5C000000,-0724,0959,10830,024.9,045.2,0.397,738.1,01.18,0.508
2013-10-23 03:30:00,2979E-4,5C000000,-0724,0960,10955,024.8,045.2,0.397,738.0,01.18,0.508
2013-10-23 03:31:00,2176E-4,5C000000,-0724,0959,10937,024.8,045.2,0.398,737.8,01.18,0.508
2013-10-23 03:32:00,3129E-4,5C000000,-0724,0959,10954,024.8,045.2,0.398,738.1,01.18,0.508
2013-10-23 03:33:00,2799E-4,5C000000,-0724,0959,10823,024.8,045.2,0.398,738.3,01.18,0.508
2013-10-23 03:34:00,2569E-4,5C000000,-0724,0959,10824,024.8,045.2,0.397,738.3,01.18,0.508
2013-10-23 03:35:00,2715E-4,5C000000,-0724,0959,10960,024.8,045.2,0.398,738.3,01.18,0.508
2013-10-23 03:36:00,2995E-4,5C000000,-0724,0959,10919,024.8,045.2,0.398,737.9,01.18,0.508
2013-10-23 03:37:00,2647E-4,5C000000,-0724,0959,10820,024.8,045.2,0.398,738.1,01.18,0.508
2013-10-23 03:38:00,3265E-4,5C000000,-0724,0959,11045,024.8,045.2,0.398,738.1,01.18,0.508
2013-10-23 03:39:00,2634E-4,5C000000,-0724,0959,10960,024.8,045.2,0.397,738.0,01.18,0.508
2013-10-23 03:40:00,2294E-4,5C000000,-0724,0959,10871,024.8,045.2,0.398,738.0,01.18,0.508
2013-10-23 03:41:00,2148E-4,5C000000,-0724,0958,10990,024.8,045.2,0.398,737.9,01.18,0.508
2013-10-23 03:42:00,2120E-4,5C000000,-0724,0959,11033,024.8,045.2,0.398,737.9,01.18,0.508
2013-10-23 03:43:00,2504E-4,5C000000,-0724,0960,10943,024.8,045.2,0.398,737.9,01.18,0.508
2013-10-23 03:44:00,2851E-4,5C000000,-0724,0959,11025,024.8,045.2,0.398,737.5,01.18,0.508
2013-10-23 03:45:00,3285E-4,5C000000,-0724,0959,11069,024.8,045.2,0.398,737.7,01.18,0.508
2013-10-23 03:46:00,2651E-4,5C000000,-0724,0959,11019,024.8,045.2,0.398,737.7,01.18,0.508
2013-10-23 03:47:00,2372E-4,5C000000,-0724,0960,10871,024.8,045.2,0.398,737.6,01.18,0.508
2013-10-23 03:48:00,2682E-4,5C000000,-0724,0958,11001,024.7,045.2,0.398,737.7,01.18,0.508
2013-10-23 03:49:00,2290E-4,5C000000,-0724,0959,10933,024.8,045.2,0.398,737.6,01.18,0.508
2013-10-23 03:50:00,2178E-4,5C000000,-0724,0958,10949,024.8,045.2,0.398,737.4,01.18,0.508
2013-10-23 03:51:00,1689E-4,5C000000,-0724,0958,10885,024.8,045.2,0.397,737.6,01.18,0.508
2013-10-23 03:52:00,2411E-4,5C000000,-0724,0959,10955,024.7,045.2,0.398,737.5,01.18,0.508
2013-10-23 03:53:00,2290E-4,5C000000,-0724,0959,10931,024.7,045.2,0.398,737.2,01.18,0.508
2013-10-23 03:54:00,2545E-4,5C000000,-0724,0958,10822,024.7,045.2,0.397,737.1,01.18,0.508
2013-10-23 03:55:00,2227E-4,5C000000,-0724,0959,11041,024.7,045.2,0.397,737.3,01.18,0.508
2013-10-23 03:56:00,3078E-4,5C000000,-0724,0959,10911,024.7,045.2,0.398,737.5,01.18,0.508
2013-10-23 03:57:00,1899E-4,5C000000,-0724,0959,11075,024.7,045.2,0.398,737.3,01.18,0.508
2013-10-23 03:58:00,2605E-4,5C000000,-0724,0959,10951,024.7,045.2,0.398,737.6,01.18,0.508
2013-10-23 03:59:00,2314E-4,5C000000,-0724,0959,10920,024.7,045.2,0.397,737.7,01.18,0.508
2013-10-23 04:00:00,2409E-4,5C000000,-0724,0959,11069,024.7,045.2,0.397,737.4,01.18,0.508
2013-10-23 04:01:00,1695E-4,5C000000,-0724,0959,11036,024.7,045.3,0.398,737.7,01.18,0.508
2013-10-23 04:02:00,2300E-4,5C000000,-0724,0959,10986,024.7,045.2,0.398,737.8,01.18,0.508
2013-10-23 04:03:00,1335E-4,5C000000,-0724,0959,10970,024.7,045.2,0.398,737.8,01.18,0.508
2013-10-23 04:04:00,2255E-4,5C000000,-0724,0959,10909,024.7,045.2,0.397,737.5,01.18,0.508
2013-10-23 04:05:00,1181E-4,5C000000,-0724,0958,10887,024.7,045.2,0.398,737.6,01.18,0.508
2013-10-23 04:06:00,2413E-4,5C000000,-0724,0959,10875,024.6,045.2,0.398,737.7,01.18,0.508
2013-10-23 04:07:00,3671E-4,5C000000,-0724,0959,11050,024.7,045.2,0.398,738.0,01.18,0.508
2013-10-23 04:08:00,1444E-4,5C000000,-0724,0959,10951,024.6,045.3,0.398,738.1,01.18,0.508
2013-10-23 04:09:00,2895E-4,5C000000,-0724,0959,10966,024.7,045.3,0.398,737.9,01.18,0.508
2013-10-23 04:10:00,1837E-4,5C000000,-0724,0958,10977,024.7,045.2,0.398,738.1,01.18,0.508
2013-10-23 04:11:00,2746E-4,5C000000,-0724,0959,11023,024.6,045.3,0.398,738.1,01.18,0.508
2013-10-23 04:12:00,2839E-4,5C000000,-0724,0959,10969,024.6,045.2,0.398,738.0,01.18,0.508
2013-10-23 04:13:00,3007E-4,5C000000,-0724,0959,10997,024.6,045.2,0.398,738.0,01.18,0.508
2013-10-23 04:14:00,2662E-4,5C000000,-0724,0959,11029,024.6,045.2,0.398,738.0,01.18,0.508
2013-10-23 04:15:00,2356E-4,5C000000,-0724,0958,11024,024.6,045.2,0.398,737.9,01.18,0.508
2013-10-23 04:16:00,2428E-4,5C000000,-0724,0958,10754,024.6,045.2,0.398,738.3,01.18,0.508
2013-10-23 04:17:00,3098E-4,5C000000,-0724,0959,10853,024.7,045.2,0.399,738.4,01.18,0.508
2013-10-23 04:18:00,2633E-4,5C000000,-0724,0958,10974,024.7,045.2,0.398,738.1,01.18,0.508
2013-10-23 04:19:00,2459E-4,5C000000,-0724,0959,10944,024.6,045.2,0.398,738.0,01.18,0.508
2013-10-23 04:20:00,1076E-4,5C000000,-0724,0958,10923,024.6,045.2,0.398,737.9,01.18,0.508